Medford, OR

1:17 PM PDT on September 22, 2019 (GMT -0700)
Rogue Valley International-Medford

Weather History for KMFR - August, 2019

Change the Weather History Date:

Sunday, August 25, 2019

  Actual Average Record
Temperature  
Mean Temperature 74 °F 72 °F  
Max Temperature 93 °F 89 °F 106 °F (1916)
Min Temperature 56 °F 55 °F 41 °F (1969)
Degree Days  
Heating Degree Days 0 0  
Month to date heating degree days 0 0  
Since 1 June heating degree days 31 60  
Since 1 July heating degree days 0 6  
Cooling Degree Days 10 7  
Month to date cooling degree days 258 236  
Year to date cooling degree days 739 668  
Since 1 June cooling degree days 707 630  
Growing Degree Days 24 (Base 50)    
Moisture  
Dew Point 48 °F    
Average Humidity 43    
Maximum Humidity 72    
Minimum Humidity 13    
Precipitation  
Precipitation 0.00 in 0.01 in 0.32 in (2013)
Month to date precipitation 0.84 0.31  
Year to date precipitation 14.70 10.05  
Snow  
Snow 0.00 in 0.00 in - ()
Month to date snowfall 0.0 0.0  
Since 1 July snowfall 0.0 0.0  
Snow Depth 0.00 in    
Sea Level Pressure  
Sea Level Pressure 30.01 in    
Wind  
Wind Speed 3 mph ()    
Max Wind Speed 16 mph    
Max Gust Speed 19 mph    
Visibility 10.0 miles    
Events      
T = Trace of Precipitation, MM = Missing Value Source: Averaged Metar Reports

Daily Weather History Graph

Daily Weather History Graph

Search for Another Location

Airport or City:

Astronomy

Aug. 25, 2019 Rise Set
Actual Time 6:29 AM PDT 7:57 PM PDT
Civil Twilight 5:59 AM PDT 8:26 PM PDT
Nautical Twilight 5:24 AM PDT 9:01 PM PDT
Astronomical Twilight 4:46 AM PDT 9:39 PM PDT
Moon 1:04 AM PDT (8/25) 4:28 PM PDT (8/25)
Length of Visible Light 14h 26m
Length of Day
13h 28m
Waning Crescent, 28% of the Moon is Illuminated
Aug 25
Waning Crescent
Aug 30
New
Sep 5
First Quarter
Sep 13
Full
Sep 21
Last Quarter

Hourly Weather History & Observations

Time (PDT) Temp. Dew Point Humidity Pressure Visibility Wind Dir Wind Speed Gust Speed Precip Events Conditions
12:53 AM 70.0 °F 48.9 °F 47% 29.96 in 10.0 mi Calm Calm - N/A   Clear
2:53 AM 64.9 °F 48.0 °F 54% 29.98 in 10.0 mi SE 3.5 mph - N/A   Clear
3:53 AM 62.1 °F 48.9 °F 62% 29.99 in 10.0 mi SE 3.5 mph - N/A   Clear
4:53 AM 60.1 °F 48.9 °F 67% 30.01 in 10.0 mi Calm Calm - N/A   Clear
5:53 AM 60.1 °F 48.9 °F 67% 30.02 in 10.0 mi Calm Calm - N/A   Clear
6:53 AM 57.0 °F 48.0 °F 72% 30.05 in 10.0 mi Calm Calm - N/A   Clear
7:53 AM 60.1 °F 50.0 °F 69% 30.07 in 10.0 mi SW 3.5 mph - N/A   Clear
8:53 AM 66.0 °F 50.0 °F 56% 30.08 in 10.0 mi North 4.6 mph - N/A   Clear
9:53 AM 70.0 °F 52.0 °F 53% 30.07 in 10.0 mi Variable 3.5 mph - N/A   Clear
10:53 AM 73.9 °F 52.0 °F 46% 30.07 in 10.0 mi Calm Calm - N/A   Clear
11:53 AM 77.0 °F 51.1 °F 40% 30.05 in 10.0 mi WNW 4.6 mph - N/A   Clear
12:53 PM 82.0 °F 48.9 °F 31% 30.03 in 10.0 mi WNW 4.6 mph - N/A   Clear
1:53 PM 84.9 °F 42.1 °F 22% 30.01 in 10.0 mi West 4.6 mph - N/A   Clear
2:53 PM 90.0 °F 33.1 °F 13% 29.99 in 10.0 mi Variable 3.5 mph - N/A   Clear
3:53 PM 89.1 °F 39.0 °F 17% 29.97 in 10.0 mi WSW 3.5 mph - N/A   Clear
4:53 PM 91.9 °F 45.0 °F 20% 29.95 in 10.0 mi Variable 3.5 mph - N/A   Clear
5:53 PM 93.0 °F 46.0 °F 20% 29.95 in 10.0 mi North 16.1 mph - N/A   Clear
6:53 PM 89.1 °F 48.0 °F 24% 29.96 in 10.0 mi NNW 10.4 mph - N/A   Clear
7:53 PM 84.0 °F 50.0 °F 31% 29.98 in 10.0 mi NNW 5.8 mph - N/A   Clear
8:53 PM 79.0 °F 50.0 °F 36% 30.01 in 10.0 mi NNW 5.8 mph - N/A   Clear
9:53 PM 78.1 °F 48.9 °F 36% 30.02 in 10.0 mi NNW 4.6 mph - N/A   Clear
10:53 PM 72.0 °F 50.0 °F 46% 30.03 in 10.0 mi Variable 3.5 mph - N/A   Clear
11:53 PM 70.0 °F 50.0 °F 49% 30.04 in 10.0 mi ENE 3.5 mph - N/A   Clear